Probability
1 0 0 1 1 0 0 0 1 2 4 5 3 1 1 2 3 2 1 0 1 2 3 4 4 4 4 5 7 11 12 13 14 12 10 7 5 5 5 4 2 1 1 2
1 1 1 2 2 1 1 0 1 3 4 3 2 0 1 2 3 2 1 0 1 2 2 3 4 3 3 4 7 10 12 13 14 13 10 7 5 5 6 4 3 1 1 2
1 1 1 2 2 2 2 2 2 3 3 1 0 0 1 2 2 2 0 1 2 2 2 2 3 3 3 4 7 9 11 11 11 11 10 7 6 6 6 5 4 2 2 2
0 0 1 1 1 2 3 2 2 2 1 0 0 0 1 2 2 2 1 1 2 3 2 2 2 3 4 6 7 8 8 8 7 7 8 7 7 6 6 6 5 4 3 2
0 0 0 0 0 1 2 1 1 1 0 1 1 0 1 1 1 2 1 1 2 3 3 3 3 4 5 6 7 7 6 5 4 4 5 7 7 6 6 6 6 4 2 1
0 0 0 0 0 0 0 0 0 0 0 1 1 1 0 0 1 1 1 1 3 5 5 4 3 4 6 6 6 6 6 4 2 1 4 7 7 6 6 6 5 3 1 0
0 0 0 0 0 0 0 0 0 0 0 1 1 1 0 0 1 0 1 2 4 5 5 4 3 4 6 6 6 5 5 4 2 2 3 5 6 6 6 6 5 2 0 0
0 0 0 0 0 0 0 0 0 0 0 0 0 0 0 0 0 0 1 2 3 4 3 3 2 3 5 5 4 4 4 4 4 4 4 5 5 5 4 5 3 1 0 0
1 0 0 0 0 0 0 0 0 0 0 0 0 0 0 0 0 0 1 2 3 3 2 3 3 3 4 4 3 3 4 5 5 4 4 5 5 4 3 4 3 1 0 0
1 0 0 0 0 0 0 0 0 0 0 0 0 0 0 1 0 0 1 2 3 3 3 4 5 4 3 3 3 3 4 4 4 4 4 4 4 3 3 3 3 2 1 0
1 0 0 0 0 0 0 0 0 0 1 1 1 0 0 0 0 0 2 3 3 3 3 3 4 4 3 2 2 3 3 4 3 3 3 3 3 1 1 2 2 1 1 1
0 0 0 0 0 0 0 0 0 0 1 2 1 1 1 1 0 1 2 3 3 2 1 1 2 2 2 1 2 2 3 3 3 3 3 2 1 0 0 1 1 0 0 0
0 0 0 0 0 0 0 0 0 0 1 2 2 2 3 2 1 2 3 3 1 1 0 0 0 0 0 0 1 2 3 3 3 3 1 1 0 0 0 0 0 0 0 0
0 0 0 0 0 0 0 0 1 1 1 2 2 3 4 3 1 2 3 3 1 1 0 0 0 0 0 0 1 2 3 3 3 2 1 0 0 0 0 0 0 0 0 0
0 0 0 0 0 0 0 0 1 1 1 1 2 3 3 3 2 2 3 3 3 2 1 1 0 0 0 0 1 3 3 3 3 1 0 0 0 0 0 0 0 0 0 0
0 0 0 0 0 0 0 0 1 1 0 0 1 2 3 3 3 3 3 3 3 3 3 2 1 0 1 1 2 3 3 3 2 1 0 0 0 0 0 0 0 0 0 0
0 0 0 0 0 0 0 0 0 0 0 0 1 1 3 4 4 3 3 3 3 3 3 2 1 1 2 2 2 2 2 1 1 0 0 0 0 0 0 0 0 0 0 0
0 0 0 0 0 0 0 0 0 0 0 0 1 2 4 4 4 3 3 3 3 3 3 2 1 1 2 1 1 1 1 0 0 0 0 0 0 0 0 0 0 0 0 0
0 0 0 0 0 0 0 0 0 1 1 2 3 5 5 5 4 3 3 3 3 3 3 2 1 1 1 0 0 0 0 0 0 0 0 0 0 0 0 0 0 0 0 0
0 0 0 0 0 0 0 0 0 1 2 4 5 6 6 6 5 4 3 3 3 3 3 2 1 0 0 0 0 0 0 0 0 0 0 0 0 0 0 0 0 0 0 0
0 0 0 0 0 0 0 0 0 1 2 4 5 6 5 4 4 3 3 3 3 3 3 2 1 0 0 0 0 0 0 0 0 0 0 0 0 0 0 0 0 0 0 0
0 0 0 0 0 0 0 0 1 2 3 4 4 4 4 3 3 3 3 3 3 3 3 2 1 0 0 0 0 0 0 0 0 0 0 0 0 0 0 0 0 0 0 0
0 0 0 0 0 0 0 1 2 3 3 3 3 3 3 3 3 3 3 3 2 2 2 2 1 0 0 0 0 0 0 0 0 0 0 0 0 0 0 0 0 0 0 0
0 0 0 0 0 0 1 2 3 3 3 3 3 3 3 3 3 3 3 2 1 1 1 1 0 0 0 0 0 0 0 0 0 0 0 0 0 0 0 0 0 0 0 0
0 0 0 0 1 1 2 3 3 3 3 3 3 3 3 3 2 2 2 1 0 0 0 0 0 0 0 0 0 0 0 0 0 0 0 0 0 0 0 0 0 0 0 0
1 1 2 2 2 3 3 3 3 3 3 3 3 2 2 1 1 1 1 0 0 0 0 0 0 0 0 0 0 0 0 0 0 0 0 0 0 0 0 0 0 0 0 0
2 2 3 3 3 3 3 3 3 3 3 3 2 1 1 0 0 0 0 0 0 0 0 0 0 0 0 0 0 0 0 0 0 0 0 0 0 0 0 0 0 0 0 0
Wind_Speed
4 4 4 4 5 6 6 7 8 8 7 7 6 5 5 4 4 4 4 4 4 4 4 3 3 3 3 3 3 3 4 3 2 2 2 2 3 2 2 3 3 3 3 2
1 2 3 3 4 7 6 5 5 4 5 4 2 3 4 5 6 5 5 4 4 4 4 4 4 3 3 3 3 4 4 3 2 2 3 3 3 3 3 3 3 3 3 3
2 2 1 4 6 6 4 3 5 7 6 3 3 5 6 7 7 6 6 5 5 5 5 4 4 4 4 3 3 4 4 3 3 2 3 3 3 4 3 3 3 3 3 3
2 1 5 7 2 4 4 2 2 3 3 4 5 4 3 4 6 6 5 5 5 4 4 3 3 4 4 4 4 4 4 3 3 3 3 3 4 4 3 3 3 2 2 2
3 3 4 3 1 3 4 2 2 3 2 2 3 3 1 2 4 5 6 5 4 4 4 3 3 4 5 4 4 4 4 3 3 3 3 3 3 4 3 3 3 2 2 2
3 3 6 5 2 1 4 2 2 3 3 3 4 2 3 3 3 3 3 4 4 3 3 4 3 4 5 5 5 5 4 4 3 4 4 3 3 4 3 3 3 3 2 2
3 3 5 3 3 1 4 5 2 3 3 4 4 4 3 2 3 3 3 4 4 4 4 4 4 5 5 4 4 4 4 4 3 3 4 4 3 3 4 4 4 3 3 2
4 3 6 3 1 3 4 1 1 2 2 3 2 1 1 3 4 4 3 4 5 4 3 3 4 5 5 4 3 3 4 4 3 3 3 3 4 3 4 5 4 3 2 1
5 5 3 1 1 1 2 2 1 2 1 3 2 2 1 2 3 3 4 4 4 5 4 3 3 4 4 3 3 4 4 3 3 3 2 3 4 4 4 4 3 3 2 2
1 1 1 2 2 1 1 2 1 1 2 3 3 2 2 2 2 3 3 3 4 5 4 3 2 3 3 3 3 4 4 3 3 3 2 2 3 3 3 4 4 3 3 2
1 2 2 3 2 1 2 2 2 1 0 2 4 3 3 3 3 3 3 3 4 4 4 3 2 2 2 3 4 4 4 3 3 3 3 2 2 2 3 3 4 5 4 4
3 3 2 3 2 1 2 1 1 1 2 1 2 3 3 3 2 3 3 3 4 4 4 3 3 2 2 3 4 5 4 3 2 2 2 2 2 1 1 1 3 4 4 4
2 1 1 1 1 2 2 1 1 1 1 1 1 3 3 3 2 2 3 3 4 4 4 4 3 2 2 3 4 4 4 3 2 2 2 2 2 2 1 1 1 1 3 4
1 2 2 1 1 2 2 1 2 2 2 1 2 2 3 2 2 3 3 3 3 3 4 4 3 2 2 2 4 4 4 4 3 2 2 2 3 3 3 2 1 1 0 2
2 2 2 1 2 3 3 3 3 3 2 2 2 3 3 3 3 2 2 3 4 4 3 3 3 1 1 2 3 4 3 3 2 2 2 2 2 2 2 2 2 1 1 1
3 4 3 3 3 3 3 3 3 2 2 2 2 2 2 2 2 2 2 4 4 3 2 2 2 1 2 2 3 2 2 3 3 2 2 2 2 2 2 2 2 2 2 2
2 2 2 2 2 2 2 2 2 1 1 2 1 2 3 3 3 3 2 2 3 3 3 2 2 1 2 3 3 2 2 2 3 2 2 2 2 2 2 2 2 2 2 2
1 2 3 3 2 1 2 2 2 2 2 2 3 3 4 3 2 2 2 2 3 2 1 1 1 2 2 2 3 2 2 2 2 2 2 1 1 1 2 2 2 2 1 1
2 3 2 2 1 2 1 2 2 2 3 4 4 4 3 2 1 2 2 3 2 1 1 0 1 2 2 2 3 2 3 2 2 1 1 1 1 1 2 2 2 1 2 1
3 3 3 3 3 2 2 2 2 3 3 4 4 4 4 3 3 2 2 2 1 0 0 0 1 2 2 2 2 2 2 2 2 1 1 1 1 1 1 1 2 2 2 2
3 3 3 3 3 3 2 3 3 2 2 3 3 3 2 2 3 2 2 2 2 2 2 1 1 1 1 2 2 2 2 2 2 2 2 1 1 1 1 1 1 1 1 1
2 3 3 3 2 2 2 2 3 2 2 2 2 3 3 3 3 3 3 1 1 2 2 1 1 1 1 2 2 2 2 2 2 1 1 1 1 1 1 1 1 1 1 1
2 2 2 2 1 1 2 2 2 3 3 2 2 2 2 1 1 2 1 1 1 2 1 1 2 2 2 2 1 1 1 2 2 2 2 2 2 2 2 2 1 1 1 1
2 2 1 1 2 3 2 1 2 2 2 2 1 1 2 2 1 0 0 1 1 1 1 1 1 2 1 1 1 1 1 1 2 2 2 1 1 1 1 2 1 1 1 1
2 2 2 2 2 1 1 2 3 3 3 2 2 2 1 1 1 1 1 1 1 2 1 1 1 1 1 1 0 0 0 1 1 1 1 1 1 1 1 1 1 1 1 1
1 1 1 1 1 1 1 2 2 1 2 2 2 2 2 1 1 1 1 2 2 2 1 1 1 1 1 1 1 1 1 0 1 1 1 1 1 1 1 1 1 1 1 1
2 2 2 2 2 1 1 2 2 1 1 1 0 1 1 1 1 2 2 2 2 2 2 2 2 1 1 1 1 1 1 1 0 0 0 0 1 1 1 1 1 1 1 1
Wind_Direction
227 227 193 199 193 181 184 186 188 224 224 236 219 201 187 167 154 142 144 155 161 167 166 166 164 161 163 163 161 155 145 148 170 161 148 137 128 126 121 118 122 123 114 102
263 243 202 212 214 197 206 201 207 206 239 240 192 148 152 164 165 163 167 171 170 171 165 168 172 172 167 164 155 142 142 152 155 150 142 132 127 119 110 104 103 103 106 107
231 264 113 236 217 199 200 202 187 205 224 168 159 178 183 181 180 180 182 181 178 181 178 177 173 168 171 164 143 137 140 142 142 137 134 137 136 123 118 115 104 101 96 94
166 131 214 237 223 176 171 202 200 203 201 181 186 190 185 178 178 179 181 183 186 187 178 168 161 158 152 145 142 142 141 140 137 134 134 138 133 133 129 118 114 109 100 99
146 183 254 278 226 161 158 228 201 194 199 165 136 85 5 186 177 186 188 184 184 179 169 157 157 155 145 145 147 148 156 161 162 149 144 147 151 150 140 128 117 116 121 112
146 166 219 239 277 285 112 240 224 179 176 163 128 147 240 201 172 171 173 168 160 146 136 144 154 146 144 153 156 167 174 172 167 161 159 167 168 156 146 139 134 127 109 106
164 198 257 275 296 109 157 229 226 174 174 166 179 206 214 164 161 157 159 157 146 143 148 158 150 142 148 152 170 178 164 156 154 158 158 158 148 145 142 133 124 120 114 95
155 181 249 321 69 156 209 197 136 153 156 160 174 173 154 165 161 152 144 141 142 143 144 142 145 143 148 168 178 154 147 146 147 147 149 141 136 132 132 133 130 127 119 96
183 204 252 306 214 231 162 152 173 165 183 152 150 149 129 142 150 152 150 149 144 140 134 130 140 144 151 174 154 144 139 143 143 139 135 137 141 144 139 139 144 154 155 162
173 267 299 346 344 14 104 156 190 187 188 169 161 160 136 129 141 149 150 151 140 135 139 146 152 150 152 152 150 145 148 149 143 137 130 125 135 151 156 161 163 170 178 187
197 282 348 348 350 13 39 53 56 46 139 167 154 158 154 151 162 165 159 152 143 145 152 168 162 155 150 146 143 142 145 144 143 147 146 137 142 168 174 190 184 179 189 187
213 225 194 260 298 3 50 44 54 51 26 27 152 154 151 156 173 171 162 151 148 151 160 163 153 156 156 155 149 147 146 149 153 156 155 150 145 106 73 169 176 180 186 188
209 200 177 263 347 7 20 357 21 82 123 115 105 133 141 143 145 155 153 156 167 167 161 157 152 161 172 166 158 158 161 162 163 169 166 162 161 163 164 28 44 157 178 190
183 100 57 15 354 355 7 9 55 72 88 104 103 107 115 118 125 144 162 164 155 145 142 145 147 169 173 157 155 159 160 161 165 176 178 180 181 184 181 178 202 294 260 196
30 86 145 94 34 12 20 54 65 60 59 55 76 92 97 109 130 152 154 141 130 131 140 143 146 174 155 149 152 158 160 162 166 174 179 182 180 181 185 184 191 212 229 226
46 60 83 84 66 38 35 48 59 57 59 58 56 60 80 102 114 111 123 135 137 148 162 157 165 183 151 147 151 153 154 151 154 166 170 169 172 177 181 184 194 207 222 221
79 67 74 75 57 37 27 33 50 60 79 84 76 66 77 77 74 80 94 118 139 153 159 164 184 179 152 156 155 151 143 145 139 143 160 169 177 186 186 190 198 208 224 212
175 164 157 154 145 98 24 29 52 67 77 86 87 80 81 82 85 93 92 96 98 89 83 155 161 150 145 149 151 147 145 145 146 152 149 152 158 169 167 177 190 199 215 180
82 96 95 93 107 110 70 38 51 66 71 83 89 83 72 74 86 96 96 99 104 106 305 295 143 134 143 148 142 142 143 139 141 152 157 153 155 162 167 175 181 185 190 179
57 66 73 60 58 77 77 68 75 69 67 83 86 76 61 48 50 65 77 77 53 254 240 165 144 139 148 147 137 142 145 147 155 160 158 164 174 178 181 186 183 183 192 194
54 56 65 62 51 50 71 87 90 80 66 77 91 98 94 68 63 67 75 59 1 22 55 89 109 122 138 149 145 143 146 152 162 169 173 176 174 179 184 190 197 194 196 200
49 53 57 60 64 47 45 78 99 98 79 71 76 89 86 73 69 61 51 44 1 35 66 65 58 64 109 129 140 148 153 160 174 178 178 179 185 201 199 194 200 202 203 209
46 45 47 47 56 51 52 77 103 108 96 88 89 99 103 94 92 88 35 348 19 41 61 53 41 53 85 117 139 150 162 179 184 183 187 191 201 207 207 206 204 200 201 202
54 52 33 29 71 80 67 49 75 85 87 82 78 100 114 99 45 353 237 328 21 52 51 25 50 56 66 84 142 166 183 193 192 193 198 206 209 203 195 193 195 198 189 189
55 47 44 53 82 107 122 93 77 68 71 56 35 36 53 107 155 301 0 16 20 38 32 22 46 43 45 32 28 289 229 211 200 193 197 203 207 201 196 197 196 189 184 191
57 47 40 66 125 147 128 110 101 91 92 68 23 17 24 25 30 20 25 21 24 26 28 18 18 25 38 29 9 350 329 235 182 190 198 198 197 189 185 184 180 182 199 210
57 58 58 43 27 52 112 121 120 111 120 130 106 347 2 21 27 25 29 30 24 22 19 14 19 35 42 36 14 10 14 14 41 126 146 179 198 196 191 191 195 191 197 197